Time,TemperatureF,DewpointF,PressureIn,WindDirection,WindDirectionDegrees,WindSpeedMPH,WindSpeedGustMPH,Humidity,HourlyPrecipIn,Conditions,Clouds,dailyrainin,SolarRadiationWatts/m^2,SoftwareType,DateUTC
2013-08-03 00:01:00,66.9,64.5,29.94,West,270,0.0,1.0,92,0.00,,,-99.99,0,WeatherLink 6.0.3,2013-08-03 04:01:00,
2013-08-03 00:02:00,67.0,64.6,29.94,West,261,0.0,0.0,92,0.00,,,0.00,0,Wunderground v.1.15,2013-08-03 04:02:00,
2013-08-03 00:03:00,67.0,64.6,29.94,West,261,0.0,0.0,92,0.00,,,0.00,0,Wunderground v.1.15,2013-08-03 04:03:00,
2013-08-03 00:08:00,67.1,64.4,29.94,West,261,0.0,0.0,91,0.00,,,0.00,0,Wunderground v.1.15,2013-08-03 04:08:00,
2013-08-03 00:11:00,67.1,64.4,29.94,West,261,0.0,0.0,91,0.00,,,0.00,0,Wunderground v.1.15,2013-08-03 04:11:00,
2013-08-03 00:17:00,67.3,64.6,29.94,West,261,0.0,0.0,91,0.00,,,0.00,0,Wunderground v.1.15,2013-08-03 04:17:00,
2013-08-03 00:22:00,67.4,64.7,29.94,West,261,0.0,0.0,91,0.00,,,0.00,0,Wunderground v.1.15,2013-08-03 04:22:00,
2013-08-03 00:28:00,67.4,64.7,29.94,West,261,0.0,0.0,91,0.00,,,0.00,0,Wunderground v.1.15,2013-08-03 04:28:00,
2013-08-03 00:33:00,67.5,64.8,29.94,West,261,0.0,0.0,91,0.00,,,0.00,0,Wunderground v.1.15,2013-08-03 04:33:00,
2013-08-03 00:39:00,67.6,64.9,29.94,West,261,0.0,0.0,91,0.00,,,0.00,0,Wunderground v.1.15,2013-08-03 04:39:00,
2013-08-03 00:44:00,67.6,64.9,29.94,West,261,0.0,0.0,91,0.00,,,0.00,0,Wunderground v.1.15,2013-08-03 04:44:00,
2013-08-03 00:49:00,67.6,64.9,29.94,West,261,0.0,0.0,91,0.00,,,0.00,0,Wunderground v.1.15,2013-08-03 04:49:00,
2013-08-03 00:54:00,67.6,64.6,29.94,West,261,0.0,0.0,90,0.00,,,0.00,0,Wunderground v.1.15,2013-08-03 04:54:00,
2013-08-03 01:00:00,67.7,65.0,29.94,West,261,0.0,0.0,91,0.00,,,0.00,0,Wunderground v.1.15,2013-08-03 05:00:00,
2013-08-03 01:05:00,67.7,65.0,29.94,West,261,0.0,0.0,91,0.00,,,0.00,0,Wunderground v.1.15,2013-08-03 05:05:00,
2013-08-03 01:10:00,67.8,64.8,29.94,West,261,0.0,0.0,90,0.00,,,0.00,0,Wunderground v.1.15,2013-08-03 05:10:00,
2013-08-03 01:16:00,67.8,64.8,29.94,West,261,0.0,0.0,90,0.00,,,0.00,0,Wunderground v.1.15,2013-08-03 05:16:00,
2013-08-03 01:22:00,68.0,65.0,29.94,West,261,0.0,0.0,90,0.00,,,0.00,0,Wunderground v.1.15,2013-08-03 05:22:00,
2013-08-03 01:28:00,68.0,65.0,29.94,West,261,0.0,0.0,90,0.00,,,0.00,0,Wunderground v.1.15,2013-08-03 05:28:00,
2013-08-03 01:33:00,68.1,64.7,29.94,West,261,0.0,0.0,89,0.00,,,0.00,0,Wunderground v.1.15,2013-08-03 05:33:00,
2013-08-03 01:39:00,68.1,64.7,29.94,West,261,0.0,0.0,89,0.00,,,0.00,0,Wunderground v.1.15,2013-08-03 05:39:00,
2013-08-03 01:44:00,68.1,65.1,29.94,West,261,0.0,0.0,90,0.00,,,0.00,0,Wunderground v.1.15,2013-08-03 05:44:00,
2013-08-03 01:49:00,68.1,65.1,29.94,West,261,0.0,0.0,90,0.00,,,0.00,0,Wunderground v.1.15,2013-08-03 05:49:00,
2013-08-03 01:55:00,68.0,65.3,29.94,West,261,0.0,0.0,91,0.00,,,0.00,0,Wunderground v.1.15,2013-08-03 05:55:00,
2013-08-03 02:00:00,67.9,65.2,29.94,West,261,0.0,0.0,91,0.00,,,0.00,0,Wunderground v.1.15,2013-08-03 06:00:00,
2013-08-03 02:05:00,67.8,65.1,29.94,West,261,0.0,0.0,91,0.00,,,0.00,0,Wunderground v.1.15,2013-08-03 06:05:00,
2013-08-03 02:10:00,67.7,65.0,29.94,West,261,0.0,0.0,91,0.00,,,0.00,0,Wunderground v.1.15,2013-08-03 06:10:00,
2013-08-03 02:16:00,67.6,65.2,29.94,West,261,0.0,0.0,92,0.00,,,0.00,0,Wunderground v.1.15,2013-08-03 06:16:00,
2013-08-03 02:22:00,67.5,65.1,29.94,West,261,0.0,0.0,92,0.00,,,0.00,0,Wunderground v.1.15,2013-08-03 06:22:00,
2013-08-03 02:27:00,67.4,65.0,29.94,West,261,0.0,0.0,92,0.00,,,0.00,0,Wunderground v.1.15,2013-08-03 06:27:00,
2013-08-03 02:33:00,67.2,65.1,29.94,West,261,0.0,0.0,93,0.00,,,0.00,0,Wunderground v.1.15,2013-08-03 06:33:00,
2013-08-03 02:39:00,67.2,65.1,29.95,West,261,0.0,0.0,93,0.00,,,0.01,0,Wunderground v.1.15,2013-08-03 06:39:00,
2013-08-03 02:44:00,67.1,65.0,29.95,West,261,0.0,0.0,93,0.00,,,0.01,0,Wunderground v.1.15,2013-08-03 06:44:00,
2013-08-03 02:50:00,67.0,64.9,29.95,West,261,0.0,0.0,93,0.00,,,0.01,0,Wunderground v.1.15,2013-08-03 06:50:00,
2013-08-03 02:55:00,67.0,65.2,29.95,West,261,0.0,0.0,94,0.00,,,0.01,0,Wunderground v.1.15,2013-08-03 06:55:00,
2013-08-03 03:00:00,66.9,65.1,29.95,West,261,0.0,0.0,94,0.00,,,0.01,0,Wunderground v.1.15,2013-08-03 07:00:00,
2013-08-03 03:06:00,66.7,64.9,29.95,West,261,0.0,0.0,94,0.00,,,0.01,0,Wunderground v.1.15,2013-08-03 07:06:00,
2013-08-03 03:11:00,66.6,64.8,29.95,West,261,0.0,0.0,94,0.00,,,0.01,0,Wunderground v.1.15,2013-08-03 07:11:00,
2013-08-03 03:16:00,66.6,64.8,29.95,West,261,0.0,0.0,94,0.00,,,0.01,0,Wunderground v.1.15,2013-08-03 07:16:00,
2013-08-03 03:22:00,66.5,64.7,29.95,West,261,0.0,0.0,94,0.00,,,0.02,0,Wunderground v.1.15,2013-08-03 07:22:00,
2013-08-03 03:28:00,66.4,64.6,29.96,North,355,0.0,1.0,94,0.00,,,0.02,0,Wunderground v.1.15,2013-08-03 07:28:00,
2013-08-03 03:33:00,66.4,64.6,29.96,WNW,295,1.0,1.0,94,0.05,,,0.03,0,Wunderground v.1.15,2013-08-03 07:33:00,
2013-08-03 03:39:00,66.4,64.6,29.96,West,269,1.0,1.0,94,0.05,,,0.03,0,Wunderground v.1.15,2013-08-03 07:39:00,
2013-08-03 03:45:00,66.3,64.5,29.96,West,269,0.0,1.0,94,0.06,,,0.04,0,Wunderground v.1.15,2013-08-03 07:45:00,
2013-08-03 03:50:00,66.2,64.4,29.95,WNW,298,0.0,0.0,94,0.06,,,0.04,0,Wunderground v.1.15,2013-08-03 07:50:00,
2013-08-03 03:56:00,66.1,64.6,29.95,WSW,242,0.0,1.0,95,0.05,,,0.04,0,Wunderground v.1.15,2013-08-03 07:56:00,
2013-08-03 04:01:00,65.9,64.1,29.95,West,270,0.0,8.0,94,0.03,,,-99.99,0,WeatherLink 6.0.3,2013-08-03 08:01:00,
2013-08-03 04:07:00,65.8,64.3,29.96,SW,232,0.0,0.0,95,0.00,,,0.04,0,Wunderground v.1.15,2013-08-03 08:07:00,
2013-08-03 04:12:00,65.7,64.2,29.96,SW,232,0.0,0.0,95,0.00,,,0.04,0,Wunderground v.1.15,2013-08-03 08:12:00,
2013-08-03 04:17:00,65.6,64.1,29.96,SW,232,0.0,0.0,95,0.00,,,0.04,0,Wunderground v.1.15,2013-08-03 08:17:00,
2013-08-03 04:23:00,65.5,64.0,29.95,SW,232,0.0,0.0,95,0.00,,,0.04,0,Wunderground v.1.15,2013-08-03 08:23:00,
2013-08-03 04:29:00,65.4,63.9,29.95,SW,232,0.0,0.0,95,0.00,,,0.04,0,Wunderground v.1.15,2013-08-03 08:29:00,
2013-08-03 04:34:00,65.4,63.9,29.96,SW,232,0.0,0.0,95,0.00,,,0.04,0,Wunderground v.1.15,2013-08-03 08:34:00,
2013-08-03 04:40:00,65.3,63.8,29.96,SW,232,0.0,0.0,95,0.00,,,0.04,0,Wunderground v.1.15,2013-08-03 08:40:00,
2013-08-03 04:46:00,65.3,63.8,29.95,SW,232,0.0,0.0,95,0.00,,,0.05,0,Wunderground v.1.15,2013-08-03 08:46:00,
2013-08-03 04:52:00,65.2,64.0,29.95,SW,232,0.0,0.0,96,0.00,,,0.05,0,Wunderground v.1.15,2013-08-03 08:52:00,
2013-08-03 04:58:00,65.1,63.9,29.96,SW,232,0.0,0.0,96,0.00,,,0.05,0,Wunderground v.1.15,2013-08-03 08:58:00,
2013-08-03 05:03:00,65.1,63.9,29.96,SW,232,0.0,0.0,96,0.00,,,0.05,0,Wunderground v.1.15,2013-08-03 09:03:00,
2013-08-03 05:09:00,65.0,63.8,29.96,SW,232,0.0,0.0,96,0.00,,,0.05,0,Wunderground v.1.15,2013-08-03 09:09:00,
2013-08-03 05:14:00,64.9,63.7,29.96,SW,232,0.0,0.0,96,0.00,,,0.06,0,Wunderground v.1.15,2013-08-03 09:14:00,
2013-08-03 05:20:00,64.9,63.7,29.96,SW,232,0.0,0.0,96,0.00,,,0.06,0,Wunderground v.1.15,2013-08-03 09:20:00,
2013-08-03 05:25:00,64.9,63.7,29.97,SW,232,0.0,0.0,96,0.00,,,0.06,0,Wunderground v.1.15,2013-08-03 09:25:00,
2013-08-03 05:30:00,64.9,63.7,29.97,SW,232,0.0,0.0,96,0.00,,,0.06,0,Wunderground v.1.15,2013-08-03 09:30:00,
2013-08-03 05:35:00,64.8,63.6,29.97,SW,232,0.0,0.0,96,0.00,,,0.06,0,Wunderground v.1.15,2013-08-03 09:35:00,
2013-08-03 05:41:00,64.8,63.6,29.96,SW,232,0.0,0.0,96,0.00,,,0.07,0,Wunderground v.1.15,2013-08-03 09:41:00,
2013-08-03 05:46:00,64.8,63.6,29.96,SW,232,0.0,0.0,96,0.00,,,0.07,0,Wunderground v.1.15,2013-08-03 09:46:00,
2013-08-03 05:52:00,64.8,63.6,29.96,SW,232,0.0,0.0,96,0.00,,,0.07,0,Wunderground v.1.15,2013-08-03 09:52:00,
2013-08-03 05:57:00,64.7,63.5,29.96,SW,232,0.0,0.0,96,0.00,,,0.07,0,Wunderground v.1.15,2013-08-03 09:57:00,
2013-08-03 06:03:00,64.7,63.5,29.96,SW,232,0.0,0.0,96,0.00,,,0.07,0,Wunderground v.1.15,2013-08-03 10:03:00,
2013-08-03 06:08:00,64.7,63.5,29.96,SW,232,0.0,0.0,96,0.00,,,0.07,0,Wunderground v.1.15,2013-08-03 10:08:00,
2013-08-03 06:13:00,64.7,63.8,29.96,SW,232,0.0,0.0,97,0.00,,,0.07,0,Wunderground v.1.15,2013-08-03 10:13:00,
2013-08-03 06:18:00,64.7,63.8,29.96,SW,232,0.0,0.0,97,0.00,,,0.07,0,Wunderground v.1.15,2013-08-03 10:18:00,
2013-08-03 06:23:00,64.7,63.8,29.96,SW,232,0.0,0.0,97,0.00,,,0.07,0,Wunderground v.1.15,2013-08-03 10:23:00,
2013-08-03 06:29:00,64.6,63.7,29.96,SW,232,0.0,0.0,97,0.00,,,0.07,0,Wunderground v.1.15,2013-08-03 10:29:00,
2013-08-03 06:34:00,64.5,63.6,29.96,SW,232,0.0,0.0,97,0.00,,,0.07,0,Wunderground v.1.15,2013-08-03 10:34:00,
2013-08-03 06:40:00,64.5,63.6,29.96,SW,232,0.0,0.0,97,0.00,,,0.08,0,Wunderground v.1.15,2013-08-03 10:40:00,
2013-08-03 06:46:00,64.5,63.6,29.96,SW,232,0.0,0.0,97,0.00,,,0.08,0,Wunderground v.1.15,2013-08-03 10:46:00,
2013-08-03 06:52:00,64.5,63.6,29.96,SW,232,0.0,0.0,97,0.00,,,0.08,5,Wunderground v.1.15,2013-08-03 10:52:00,
2013-08-03 06:58:00,64.6,63.7,29.96,SW,232,0.0,0.0,97,0.00,,,0.08,5,Wunderground v.1.15,2013-08-03 10:58:00,
2013-08-03 07:03:00,64.5,63.6,29.96,SW,232,0.0,0.0,97,0.00,,,0.09,5,Wunderground v.1.15,2013-08-03 11:03:00,
2013-08-03 07:08:00,64.5,63.6,29.96,SW,232,0.0,0.0,97,0.00,,,0.09,7,Wunderground v.1.15,2013-08-03 11:08:00,
2013-08-03 07:13:00,64.5,63.6,29.96,SW,232,0.0,0.0,97,0.00,,,0.09,16,Wunderground v.1.15,2013-08-03 11:13:00,
2013-08-03 07:18:00,64.6,63.7,29.96,SW,232,0.0,0.0,97,0.04,,,0.10,25,Wunderground v.1.15,2013-08-03 11:18:00,
2013-08-03 07:24:00,64.6,63.7,29.96,SW,232,0.0,0.0,97,0.04,,,0.10,33,Wunderground v.1.15,2013-08-03 11:24:00,
2013-08-03 07:29:00,64.7,63.8,29.97,SW,232,0.0,0.0,97,0.04,,,0.10,30,Wunderground v.1.15,2013-08-03 11:29:00,
2013-08-03 07:35:00,64.7,63.8,29.97,SW,232,0.0,0.0,97,0.04,,,0.11,40,Wunderground v.1.15,2013-08-03 11:35:00,
2013-08-03 07:41:00,64.8,63.9,29.96,SW,232,0.0,0.0,97,0.04,,,0.11,12,Wunderground v.1.15,2013-08-03 11:41:00,
2013-08-03 07:47:00,64.8,63.9,29.97,SW,232,0.0,0.0,97,0.04,,,0.11,9,Wunderground v.1.15,2013-08-03 11:47:00,
2013-08-03 07:52:00,64.8,63.9,29.96,SW,232,0.0,0.0,97,0.00,,,0.12,26,Wunderground v.1.15,2013-08-03 11:52:00,
2013-08-03 07:58:00,64.8,63.9,29.97,SW,232,0.0,0.0,97,0.09,,,0.13,28,Wunderground v.1.15,2013-08-03 11:58:00,
2013-08-03 08:03:00,64.8,63.9,29.97,SW,232,0.0,0.0,97,0.08,,,0.13,33,Wunderground v.1.15,2013-08-03 12:03:00,
2013-08-03 08:09:00,64.8,63.9,29.97,SW,232,0.0,0.0,97,0.04,,,0.13,33,Wunderground v.1.15,2013-08-03 12:09:00,
2013-08-03 08:15:00,64.8,63.9,29.97,SW,232,0.0,0.0,97,0.00,,,0.13,53,Wunderground v.1.15,2013-08-03 12:15:00,
2013-08-03 08:21:00,64.8,63.9,29.97,SW,232,0.0,0.0,97,0.00,,,0.13,60,Wunderground v.1.15,2013-08-03 12:21:00,
2013-08-03 08:27:00,64.9,64.0,29.97,SW,232,0.0,0.0,97,0.00,,,0.14,54,Wunderground v.1.15,2013-08-03 12:27:00,
2013-08-03 08:33:00,65.0,64.1,29.96,SW,232,0.0,0.0,97,0.00,,,0.14,72,Wunderground v.1.15,2013-08-03 12:33:00,
2013-08-03 08:38:00,65.0,64.1,29.96,SW,232,0.0,0.0,97,0.00,,,0.14,67,Wunderground v.1.15,2013-08-03 12:38:00,
2013-08-03 08:43:00,65.1,64.2,29.96,SW,232,0.0,0.0,97,0.00,,,0.14,76,Wunderground v.1.15,2013-08-03 12:43:00,
2013-08-03 08:48:00,65.2,64.6,29.96,SW,232,0.0,0.0,98,0.00,,,0.14,72,Wunderground v.1.15,2013-08-03 12:48:00,
2013-08-03 08:54:00,65.2,64.3,29.97,SW,232,0.0,0.0,97,0.00,,,0.14,39,Wunderground v.1.15,2013-08-03 12:54:00,
2013-08-03 08:59:00,65.2,64.3,29.97,SW,232,0.0,0.0,97,0.00,,,0.14,26,Wunderground v.1.15,2013-08-03 12:59:00,
2013-08-03 09:05:00,65.1,64.2,29.96,SW,232,0.0,0.0,97,0.00,,,0.14,40,Wunderground v.1.15,2013-08-03 13:05:00,
2013-08-03 09:12:00,65.1,64.2,29.96,SW,232,0.0,0.0,97,0.00,,,0.14,67,Wunderground v.1.15,2013-08-03 13:12:00,
2013-08-03 09:17:00,65.2,64.3,29.96,SW,232,0.0,0.0,97,0.00,,,0.14,84,Wunderground v.1.15,2013-08-03 13:17:00,
2013-08-03 09:23:00,65.2,64.3,29.96,SW,232,0.0,0.0,97,0.00,,,0.14,102,Wunderground v.1.15,2013-08-03 13:23:00,
2013-08-03 09:28:00,65.3,64.4,29.96,SW,232,0.0,0.0,97,0.00,,,0.14,74,Wunderground v.1.15,2013-08-03 13:28:00,
2013-08-03 09:33:00,65.3,64.4,29.96,SW,232,0.0,0.0,97,0.00,,,0.14,93,Wunderground v.1.15,2013-08-03 13:33:00,
2013-08-03 09:39:00,65.4,64.5,29.96,SW,232,0.0,0.0,97,0.00,,,0.14,84,Wunderground v.1.15,2013-08-03 13:39:00,
2013-08-03 09:44:00,65.4,64.5,29.96,SW,232,0.0,0.0,97,0.00,,,0.14,93,Wunderground v.1.15,2013-08-03 13:44:00,
2013-08-03 09:49:00,65.4,64.5,29.96,SW,232,0.0,0.0,97,0.00,,,0.14,67,Wunderground v.1.15,2013-08-03 13:49:00,
2013-08-03 09:55:00,65.4,64.5,29.96,SW,232,0.0,0.0,97,0.00,,,0.14,69,Wunderground v.1.15,2013-08-03 13:55:00,
2013-08-03 10:01:00,65.4,64.5,29.96,North,-999,0.0,0.0,97,0.00,,,-99.99,79,WeatherLink 6.0.3,2013-08-03 14:01:00,
2013-08-03 10:07:00,65.4,64.5,29.96,SW,232,0.0,0.0,97,0.00,,,0.14,116,Wunderground v.1.15,2013-08-03 14:07:00,
2013-08-03 10:12:00,65.4,64.5,29.96,SW,232,0.0,0.0,97,0.00,,,0.14,90,Wunderground v.1.15,2013-08-03 14:12:00,
2013-08-03 10:18:00,65.5,64.6,29.96,SW,232,0.0,0.0,97,0.00,,,0.14,102,Wunderground v.1.15,2013-08-03 14:18:00,
2013-08-03 10:24:00,65.5,64.6,29.97,SW,232,0.0,0.0,97,0.00,,,0.14,93,Wunderground v.1.15,2013-08-03 14:24:00,
2013-08-03 10:30:00,65.5,64.6,29.97,SW,232,0.0,0.0,97,0.00,,,0.14,139,Wunderground v.1.15,2013-08-03 14:30:00,
2013-08-03 10:36:00,65.6,64.7,29.96,SW,232,0.0,0.0,97,0.00,,,0.14,183,Wunderground v.1.15,2013-08-03 14:36:00,
2013-08-03 10:41:00,65.8,64.9,29.96,SW,232,0.0,0.0,97,0.00,,,0.14,153,Wunderground v.1.15,2013-08-03 14:41:00,
2013-08-03 10:46:00,65.9,65.0,29.96,SW,232,0.0,0.0,97,0.00,,,0.14,118,Wunderground v.1.15,2013-08-03 14:46:00,
2013-08-03 10:51:00,66.0,65.1,29.96,SW,232,0.0,0.0,97,0.00,,,0.14,193,Wunderground v.1.15,2013-08-03 14:51:00,
2013-08-03 10:56:00,66.1,65.2,29.96,SW,232,0.0,0.0,97,0.00,,,0.14,134,Wunderground v.1.15,2013-08-03 14:56:00,
2013-08-03 11:02:00,66.1,65.2,29.96,SW,232,0.0,0.0,97,0.00,,,0.14,142,Wunderground v.1.15,2013-08-03 15:02:00,
2013-08-03 11:07:00,66.2,65.0,29.96,SW,232,0.0,0.0,96,0.00,,,0.14,104,Wunderground v.1.15,2013-08-03 15:07:00,
2013-08-03 11:13:00,66.3,65.1,29.96,SW,232,0.0,0.0,96,0.00,,,0.14,139,Wunderground v.1.15,2013-08-03 15:13:00,
2013-08-03 11:18:00,66.4,65.5,29.96,SW,232,0.0,0.0,97,0.00,,,0.14,153,Wunderground v.1.15,2013-08-03 15:18:00,
2013-08-03 11:24:00,66.5,65.6,29.96,SW,232,0.0,0.0,97,0.00,,,0.15,130,Wunderground v.1.15,2013-08-03 15:24:00,
2013-08-03 11:30:00,66.7,65.8,29.97,SW,232,0.0,0.0,97,0.00,,,0.15,77,Wunderground v.1.15,2013-08-03 15:30:00,
2013-08-03 11:37:00,66.6,65.4,29.97,SW,232,0.0,0.0,96,0.04,,,0.16,93,Wunderground v.1.15,2013-08-03 15:37:00,
2013-08-03 11:42:00,66.6,65.4,29.97,SW,232,0.0,0.0,96,0.04,,,0.16,162,Wunderground v.1.15,2013-08-03 15:42:00,
2013-08-03 11:48:00,66.6,65.7,29.97,SW,232,0.0,0.0,97,0.04,,,0.16,125,Wunderground v.1.15,2013-08-03 15:48:00,
2013-08-03 11:54:00,66.7,65.5,29.97,SW,232,0.0,0.0,96,0.00,,,0.16,105,Wunderground v.1.15,2013-08-03 15:54:00,
2013-08-03 12:00:00,66.7,65.5,29.96,SW,232,0.0,0.0,96,0.00,,,0.16,104,Wunderground v.1.15,2013-08-03 16:00:00,
2013-08-03 12:06:00,66.7,65.5,29.97,SW,232,0.0,0.0,96,0.00,,,0.16,91,Wunderground v.1.15,2013-08-03 16:06:00,
2013-08-03 12:11:00,66.6,65.4,29.97,SW,232,0.0,0.0,96,0.00,,,0.16,142,Wunderground v.1.15,2013-08-03 16:11:00,
2013-08-03 12:17:00,66.8,65.9,29.97,SW,232,0.0,0.0,97,0.00,,,0.16,269,Wunderground v.1.15,2013-08-03 16:17:00,
2013-08-03 12:23:00,67.1,66.2,29.97,SW,232,0.0,0.0,97,0.00,,,0.16,364,Wunderground v.1.15,2013-08-03 16:23:00,
2013-08-03 12:29:00,67.5,66.6,29.97,SW,232,0.0,0.0,97,0.00,,,0.16,211,Wunderground v.1.15,2013-08-03 16:29:00,
2013-08-03 12:34:00,67.7,66.8,29.97,SW,232,0.0,0.0,97,0.00,,,0.16,373,Wunderground v.1.15,2013-08-03 16:34:00,
2013-08-03 12:39:00,67.7,66.5,29.97,SW,232,0.0,0.0,96,0.00,,,0.16,172,Wunderground v.1.15,2013-08-03 16:39:00,
2013-08-03 12:45:00,67.8,66.6,29.97,SW,232,0.0,0.0,96,0.00,,,0.16,225,Wunderground v.1.15,2013-08-03 16:45:00,
2013-08-03 12:50:00,67.9,66.7,29.97,SW,232,0.0,0.0,96,0.00,,,0.16,213,Wunderground v.1.15,2013-08-03 16:50:00,
2013-08-03 12:55:00,68.1,66.9,29.97,SW,232,0.0,0.0,96,0.00,,,0.16,255,Wunderground v.1.15,2013-08-03 16:55:00,
2013-08-03 13:01:00,68.3,67.1,29.97,SW,225,0.0,1.0,96,0.00,,,-99.99,238,WeatherLink 6.0.3,2013-08-03 17:01:00,
2013-08-03 13:06:00,68.5,67.3,29.97,WSW,252,0.0,1.0,96,0.00,,,0.16,334,Wunderground v.1.15,2013-08-03 17:06:00,
2013-08-03 13:12:00,68.9,67.4,29.97,WSW,252,0.0,0.0,95,0.00,,,0.16,485,Wunderground v.1.15,2013-08-03 17:12:00,
2013-08-03 13:17:00,69.2,67.4,29.97,WSW,252,0.0,0.0,94,0.00,,,0.16,380,Wunderground v.1.15,2013-08-03 17:17:00,
2013-08-03 13:23:00,69.5,68.0,29.97,WSW,252,0.0,0.0,95,0.00,,,0.16,860,Wunderground v.1.15,2013-08-03 17:23:00,
2013-08-03 13:29:00,70.2,68.4,29.97,WSW,252,0.0,0.0,94,0.00,,,0.16,548,Wunderground v.1.15,2013-08-03 17:29:00,
2013-08-03 13:34:00,70.4,68.3,29.96,WSW,252,0.0,0.0,93,0.00,,,0.16,357,Wunderground v.1.15,2013-08-03 17:34:00,
2013-08-03 13:39:00,70.7,68.6,29.97,WSW,252,0.0,0.0,93,0.00,,,0.16,229,Wunderground v.1.15,2013-08-03 17:39:00,
2013-08-03 13:44:00,70.8,69.0,29.96,West,265,0.0,1.0,94,0.00,,,0.16,294,Wunderground v.1.15,2013-08-03 17:44:00,
2013-08-03 13:50:00,71.0,67.9,29.97,South,187,0.0,0.0,90,0.00,,,0.16,241,Wunderground v.1.15,2013-08-03 17:50:00,
2013-08-03 13:55:00,70.8,67.7,29.96,South,188,0.0,0.0,90,0.00,,,0.16,438,Wunderground v.1.15,2013-08-03 17:55:00,
2013-08-03 14:01:00,71.0,68.6,29.96,South,180,0.0,3.0,92,0.00,,,-99.99,296,WeatherLink 6.0.3,2013-08-03 18:01:00,
2013-08-03 14:07:00,71.8,69.0,29.96,WSW,252,1.0,1.0,91,0.00,,,0.16,1072,Wunderground v.1.15,2013-08-03 18:07:00,
2013-08-03 14:13:00,72.4,69.6,29.96,South,171,1.0,2.0,91,0.00,,,0.16,1030,Wunderground v.1.15,2013-08-03 18:13:00,
2013-08-03 14:18:00,72.7,68.9,29.95,South,189,1.0,4.0,88,0.00,,,0.16,313,Wunderground v.1.15,2013-08-03 18:18:00,
2013-08-03 14:24:00,72.6,68.8,29.95,SSW,192,1.0,2.0,88,0.00,,,0.16,283,Wunderground v.1.15,2013-08-03 18:24:00,
2013-08-03 14:30:00,72.8,69.0,29.95,SSW,196,0.0,0.0,88,0.00,,,0.16,1039,Wunderground v.1.15,2013-08-03 18:30:00,
2013-08-03 14:36:00,73.0,68.6,29.95,SSW,206,0.0,1.0,86,0.00,,,0.16,417,Wunderground v.1.15,2013-08-03 18:36:00,
2013-08-03 14:41:00,72.9,68.5,29.95,SSW,208,0.0,1.0,86,0.00,,,0.16,346,Wunderground v.1.15,2013-08-03 18:41:00,
2013-08-03 14:46:00,72.7,68.3,29.95,SSW,208,0.0,1.0,86,0.00,,,0.16,489,Wunderground v.1.15,2013-08-03 18:46:00,
2013-08-03 14:51:00,72.8,69.0,29.95,SSW,208,0.0,1.0,88,0.00,,,0.16,462,Wunderground v.1.15,2013-08-03 18:51:00,
2013-08-03 14:57:00,72.8,68.4,29.94,SSW,202,0.0,2.0,86,0.00,,,0.16,431,Wunderground v.1.15,2013-08-03 18:57:00,
2013-08-03 15:02:00,72.9,68.5,29.95,SSW,202,0.0,1.0,86,0.00,,,0.16,329,Wunderground v.1.15,2013-08-03 19:02:00,
2013-08-03 15:08:00,72.7,68.3,29.94,SSW,209,0.0,1.0,86,0.00,,,0.16,390,Wunderground v.1.15,2013-08-03 19:08:00,
2013-08-03 15:14:00,72.6,68.5,29.94,SSW,209,0.0,1.0,87,0.00,,,0.16,338,Wunderground v.1.15,2013-08-03 19:14:00,
2013-08-03 15:19:00,72.5,68.4,29.94,SSW,209,0.0,1.0,87,0.00,,,0.16,223,Wunderground v.1.15,2013-08-03 19:19:00,
2013-08-03 15:25:00,72.4,68.6,29.94,SW,235,0.0,2.0,88,0.00,,,0.16,909,Wunderground v.1.15,2013-08-03 19:25:00,
2013-08-03 15:31:00,72.7,68.6,29.94,SSW,202,0.0,3.0,87,0.00,,,-99.99,467,WeatherLink 6.0.3,2013-08-03 19:31:00,
2013-08-03 15:36:00,73.0,69.2,29.94,SW,230,0.0,1.0,88,0.00,,,0.16,1079,Wunderground v.1.15,2013-08-03 19:36:00,
2013-08-03 15:42:00,73.1,68.3,29.94,SSW,212,0.0,0.0,85,0.00,,,0.16,944,Wunderground v.1.15,2013-08-03 19:42:00,
2013-08-03 15:47:00,73.2,68.8,29.93,SSW,212,0.0,0.0,86,0.00,,,0.16,877,Wunderground v.1.15,2013-08-03 19:47:00,
2013-08-03 15:53:00,73.5,68.7,29.93,SSW,213,0.0,0.0,85,0.00,,,0.16,853,Wunderground v.1.15,2013-08-03 19:53:00,
2013-08-03 15:58:00,73.8,69.0,29.93,SSW,211,0.0,2.0,85,0.00,,,0.16,796,Wunderground v.1.15,2013-08-03 19:58:00,
2013-08-03 16:03:00,74.1,69.3,29.93,SW,230,0.0,2.0,85,0.00,,,0.16,809,Wunderground v.1.15,2013-08-03 20:03:00,
2013-08-03 16:08:00,74.2,69.4,29.93,SW,230,0.0,2.0,85,0.00,,,0.16,779,Wunderground v.1.15,2013-08-03 20:08:00,
2013-08-03 16:14:00,74.5,69.7,29.93,SW,219,0.0,0.0,85,0.00,,,0.16,759,Wunderground v.1.15,2013-08-03 20:14:00,
2013-08-03 16:20:00,74.9,69.7,29.92,WSW,250,0.0,0.0,84,0.00,,,0.16,754,Wunderground v.1.15,2013-08-03 20:20:00,
2013-08-03 16:26:00,75.4,70.2,29.92,WSW,247,0.0,1.0,84,0.00,,,0.16,744,Wunderground v.1.15,2013-08-03 20:26:00,
2013-08-03 16:32:00,75.4,70.2,29.92,SW,219,0.0,0.0,84,0.00,,,0.16,731,Wunderground v.1.15,2013-08-03 20:32:00,
2013-08-03 16:37:00,75.3,69.4,29.91,SW,219,0.0,1.0,82,0.00,,,0.16,714,Wunderground v.1.15,2013-08-03 20:37:00,
2013-08-03 16:43:00,75.3,69.8,29.92,SSE,163,0.0,0.0,83,0.00,,,0.16,705,Wunderground v.1.15,2013-08-03 20:43:00,
2013-08-03 16:48:00,75.3,69.8,29.92,SW,231,0.0,0.0,83,0.00,,,0.16,758,Wunderground v.1.15,2013-08-03 20:48:00,
2013-08-03 16:54:00,75.4,69.9,29.92,SSE,161,0.0,1.0,83,0.00,,,0.16,671,Wunderground v.1.15,2013-08-03 20:54:00,
2013-08-03 17:00:00,75.3,69.4,29.92,SSW,196,0.0,1.0,82,0.00,,,0.16,664,Wunderground v.1.15,2013-08-03 21:00:00,
2013-08-03 17:05:00,75.1,69.6,29.92,South,180,1.0,1.0,83,0.00,,,0.16,656,Wunderground v.1.15,2013-08-03 21:05:00,
2013-08-03 17:10:00,75.2,69.7,29.92,South,180,0.0,0.0,83,0.00,,,0.16,633,Wunderground v.1.15,2013-08-03 21:10:00,
2013-08-03 17:15:00,75.5,69.3,29.92,SSE,167,0.0,1.0,81,0.00,,,0.16,582,Wunderground v.1.15,2013-08-03 21:15:00,
2013-08-03 17:21:00,75.6,69.4,29.92,South,169,0.0,1.0,81,0.00,,,0.16,132,Wunderground v.1.15,2013-08-03 21:21:00,
2013-08-03 17:26:00,75.3,69.4,29.93,North,11,0.0,2.0,82,0.00,,,0.16,79,Wunderground v.1.15,2013-08-03 21:26:00,
2013-08-03 17:31:00,74.5,67.9,29.93,North,0,1.0,10.0,80,0.02,,,-99.99,349,WeatherLink 6.0.3,2013-08-03 21:31:00,
2013-08-03 17:36:00,72.9,68.1,29.92,WSW,240,3.0,5.0,85,0.48,,,0.24,69,Wunderground v.1.15,2013-08-03 21:36:00,
2013-08-03 17:42:00,71.5,68.1,29.93,SSW,192,1.0,1.0,89,0.11,,,0.25,144,Wunderground v.1.15,2013-08-03 21:42:00,
2013-08-03 17:48:00,70.8,68.0,29.93,SSW,192,0.0,1.0,91,0.08,,,0.25,130,Wunderground v.1.15,2013-08-03 21:48:00,
2013-08-03 17:53:00,70.5,68.1,29.93,SSW,192,0.0,0.0,92,0.05,,,0.25,487,Wunderground v.1.15,2013-08-03 21:53:00,
2013-08-03 17:58:00,70.5,68.4,29.93,South,186,0.0,0.0,93,0.00,,,0.25,476,Wunderground v.1.15,2013-08-03 21:58:00,
2013-08-03 18:03:00,70.7,68.9,29.93,South,186,0.0,0.0,94,0.00,,,0.25,271,Wunderground v.1.15,2013-08-03 22:03:00,
2013-08-03 18:09:00,70.9,69.1,29.92,South,186,0.0,0.0,94,0.00,,,0.25,121,Wunderground v.1.15,2013-08-03 22:09:00,
2013-08-03 18:14:00,71.2,69.4,29.92,South,186,0.0,0.0,94,0.00,,,0.25,114,Wunderground v.1.15,2013-08-03 22:14:00,
2013-08-03 18:20:00,71.3,69.2,29.93,South,186,0.0,0.0,93,0.00,,,0.25,83,Wunderground v.1.15,2013-08-03 22:20:00,
2013-08-03 18:25:00,71.3,69.5,29.93,South,186,0.0,0.0,94,0.00,,,0.25,174,Wunderground v.1.15,2013-08-03 22:25:00,
2013-08-03 18:31:00,71.3,69.5,29.93,South,180,0.0,1.0,94,0.07,,,-99.99,145,WeatherLink 6.0.3,2013-08-03 22:31:00,
2013-08-03 18:37:00,71.4,69.6,29.93,South,186,0.0,0.0,94,0.00,,,0.25,125,Wunderground v.1.15,2013-08-03 22:37:00,
2013-08-03 18:42:00,71.4,69.6,29.93,South,186,0.0,0.0,94,0.00,,,0.25,141,Wunderground v.1.15,2013-08-03 22:42:00,
2013-08-03 18:48:00,71.5,69.7,29.93,South,186,0.0,0.0,94,0.00,,,0.25,97,Wunderground v.1.15,2013-08-03 22:48:00,
2013-08-03 18:54:00,71.5,69.7,29.93,South,186,0.0,0.0,94,0.00,,,0.25,102,Wunderground v.1.15,2013-08-03 22:54:00,
2013-08-03 18:59:00,71.5,69.7,29.93,South,186,0.0,0.0,94,0.00,,,0.25,60,Wunderground v.1.15,2013-08-03 22:59:00,
2013-08-03 19:05:00,71.6,69.5,29.94,ESE,120,0.0,1.0,93,0.00,,,0.25,53,Wunderground v.1.15,2013-08-03 23:05:00,
2013-08-03 19:11:00,71.6,68.8,29.93,NNE,17,0.0,0.0,91,0.00,,,0.25,51,Wunderground v.1.15,2013-08-03 23:11:00,
2013-08-03 19:16:00,71.6,69.2,29.93,NNE,17,0.0,0.0,92,0.00,,,0.25,77,Wunderground v.1.15,2013-08-03 23:16:00,
2013-08-03 19:21:00,71.6,69.5,29.93,NNE,17,0.0,0.0,93,0.00,,,0.25,74,Wunderground v.1.15,2013-08-03 23:21:00,
2013-08-03 19:26:00,71.6,69.8,29.93,NNE,17,0.0,0.0,94,0.00,,,0.25,81,Wunderground v.1.15,2013-08-03 23:26:00,
2013-08-03 19:31:00,71.7,69.9,29.93,NNE,19,0.0,0.0,94,0.00,,,0.25,72,Wunderground v.1.15,2013-08-03 23:31:00,
2013-08-03 19:37:00,71.6,69.2,29.94,North,350,0.0,0.0,92,0.00,,,0.25,49,Wunderground v.1.15,2013-08-03 23:37:00,
2013-08-03 19:42:00,71.3,68.2,29.94,North,355,0.0,0.0,90,0.00,,,0.25,44,Wunderground v.1.15,2013-08-03 23:42:00,
2013-08-03 19:47:00,70.9,67.2,29.94,NNW,347,0.0,0.0,88,0.00,,,0.25,37,Wunderground v.1.15,2013-08-03 23:47:00,
2013-08-03 19:52:00,70.7,66.0,29.95,North,355,1.0,3.0,85,0.00,,,0.25,37,Wunderground v.1.15,2013-08-03 23:52:00,
2013-08-03 19:57:00,70.6,66.2,29.95,NNW,332,1.0,3.0,86,0.00,,,0.25,35,Wunderground v.1.15,2013-08-03 23:57:00,
2013-08-03 20:03:00,70.3,64.5,29.95,NNW,345,1.0,2.0,82,0.00,,,0.25,18,Wunderground v.1.15,2013-08-04 00:03:00,
2013-08-03 20:09:00,70.2,63.7,29.95,North,355,1.0,3.0,80,0.00,,,0.25,18,Wunderground v.1.15,2013-08-04 00:09:00,
2013-08-03 20:14:00,70.0,63.5,29.95,NNW,342,1.0,1.0,80,0.00,,,0.25,14,Wunderground v.1.15,2013-08-04 00:14:00,
2013-08-03 20:20:00,69.6,63.5,29.95,NNW,342,0.0,0.0,81,0.00,,,0.25,11,Wunderground v.1.15,2013-08-04 00:20:00,
2013-08-03 20:25:00,69.1,64.1,29.95,NNW,342,0.0,0.0,84,0.00,,,0.25,7,Wunderground v.1.15,2013-08-04 00:25:00,
2013-08-03 20:31:00,68.7,64.7,29.96,North,0,0.0,5.0,87,0.00,,,-99.99,12,WeatherLink 6.0.3,2013-08-04 00:31:00,
2013-08-03 20:36:00,68.3,64.9,29.96,NNW,342,0.0,0.0,89,0.00,,,0.25,0,Wunderground v.1.15,2013-08-04 00:36:00,
2013-08-03 20:42:00,67.7,64.7,29.96,NNW,342,0.0,0.0,90,0.00,,,0.25,0,Wunderground v.1.15,2013-08-04 00:42:00,
2013-08-03 20:47:00,67.1,64.4,29.96,NNW,342,0.0,0.0,91,0.00,,,0.25,0,Wunderground v.1.15,2013-08-04 00:47:00,
2013-08-03 20:53:00,66.5,63.8,29.97,NNW,342,0.0,0.0,91,0.00,,,0.25,0,Wunderground v.1.15,2013-08-04 00:53:00,
2013-08-03 20:58:00,65.9,63.5,29.97,NNW,342,0.0,0.0,92,0.00,,,0.25,0,Wunderground v.1.15,2013-08-04 00:58:00,
2013-08-03 21:03:00,65.5,63.1,29.97,NNW,342,0.0,0.0,92,0.00,,,0.25,0,Wunderground v.1.15,2013-08-04 01:03:00,
2013-08-03 21:09:00,65.0,62.9,29.97,NNW,342,0.0,0.0,93,0.00,,,0.25,0,Wunderground v.1.15,2013-08-04 01:09:00,
2013-08-03 21:15:00,64.6,62.5,29.97,NNW,342,0.0,0.0,93,0.00,,,0.25,0,Wunderground v.1.15,2013-08-04 01:15:00,
2013-08-03 21:20:00,64.2,62.1,29.97,NNW,342,0.0,0.0,93,0.00,,,0.25,0,Wunderground v.1.15,2013-08-04 01:20:00,
2013-08-03 21:26:00,63.8,61.7,29.97,NNW,342,0.0,0.0,93,0.00,,,0.25,0,Wunderground v.1.15,2013-08-04 01:26:00,
2013-08-03 21:31:00,63.6,61.5,29.97,North,-999,0.0,0.0,93,0.00,,,-99.99,0,WeatherLink 6.0.3,2013-08-04 01:31:00,
2013-08-03 21:36:00,63.2,61.1,29.97,NNW,342,0.0,0.0,93,0.00,,,0.25,0,Wunderground v.1.15,2013-08-04 01:36:00,
2013-08-03 21:42:00,62.8,61.0,29.97,NNW,342,0.0,0.0,94,0.00,,,0.25,0,Wunderground v.1.15,2013-08-04 01:42:00,
2013-08-03 21:47:00,62.6,60.8,29.98,NNW,342,0.0,0.0,94,0.00,,,0.25,0,Wunderground v.1.15,2013-08-04 01:47:00,
2013-08-03 21:53:00,62.3,60.6,29.97,NNW,342,0.0,0.0,94,0.00,,,0.25,0,Wunderground v.1.15,2013-08-04 01:53:00,
2013-08-03 21:59:00,62.0,60.3,29.98,NNW,342,0.0,0.0,94,0.00,,,0.25,0,Wunderground v.1.15,2013-08-04 01:59:00,
2013-08-03 22:04:00,61.8,60.1,29.98,NNW,342,0.0,0.0,94,0.00,,,0.25,0,Wunderground v.1.15,2013-08-04 02:04:00,
2013-08-03 22:09:00,61.6,60.2,29.98,NNW,342,0.0,0.0,95,0.00,,,0.25,0,Wunderground v.1.15,2013-08-04 02:09:00,
2013-08-03 22:15:00,61.4,60.0,29.98,NNW,342,0.0,0.0,95,0.00,,,0.25,0,Wunderground v.1.15,2013-08-04 02:15:00,
2013-08-03 22:20:00,61.2,59.8,29.98,NNW,342,0.0,0.0,95,0.00,,,0.25,0,Wunderground v.1.15,2013-08-04 02:20:00,
2013-08-03 22:25:00,61.0,59.6,29.98,NNW,342,0.0,0.0,95,0.00,,,0.25,0,Wunderground v.1.15,2013-08-04 02:25:00,
2013-08-03 22:31:00,60.7,59.3,29.98,North,-999,0.0,0.0,95,0.00,,,-99.99,0,WeatherLink 6.0.3,2013-08-04 02:31:00,
2013-08-03 22:37:00,60.5,59.1,29.98,NNW,342,0.0,0.0,95,0.00,,,0.25,0,Wunderground v.1.15,2013-08-04 02:37:00,
2013-08-03 22:43:00,60.3,58.9,29.98,NNW,342,0.0,0.0,95,0.00,,,0.25,0,Wunderground v.1.15,2013-08-04 02:43:00,
2013-08-03 22:49:00,60.0,58.6,29.98,NNW,342,0.0,0.0,95,0.00,,,0.25,0,Wunderground v.1.15,2013-08-04 02:49:00,
2013-08-03 22:54:00,59.7,58.3,29.98,NNW,342,0.0,0.0,95,0.00,,,0.25,0,Wunderground v.1.15,2013-08-04 02:54:00,
2013-08-03 23:00:00,59.4,58.0,29.99,NNW,342,0.0,0.0,95,0.00,,,0.25,0,Wunderground v.1.15,2013-08-04 03:00:00,
2013-08-03 23:05:00,59.2,57.8,29.99,NNW,342,0.0,0.0,95,0.00,,,0.25,0,Wunderground v.1.15,2013-08-04 03:05:00,
2013-08-03 23:11:00,59.0,57.6,29.99,NNW,342,0.0,0.0,95,0.00,,,0.25,0,Wunderground v.1.15,2013-08-04 03:11:00,
2013-08-03 23:16:00,58.8,57.4,29.99,NNW,342,0.0,0.0,95,0.00,,,0.25,0,Wunderground v.1.15,2013-08-04 03:16:00,
2013-08-03 23:22:00,58.7,57.3,29.99,NNW,342,0.0,0.0,95,0.00,,,0.25,0,Wunderground v.1.15,2013-08-04 03:22:00,
2013-08-03 23:28:00,58.5,57.4,29.99,NNW,342,0.0,0.0,96,0.00,,,0.25,0,Wunderground v.1.15,2013-08-04 03:28:00,
2013-08-03 23:34:00,58.3,56.9,29.99,NNW,342,0.0,0.0,95,0.00,,,0.25,0,Wunderground v.1.15,2013-08-04 03:34:00,
2013-08-03 23:39:00,58.1,56.7,29.99,NNW,342,0.0,0.0,95,0.00,,,0.25,0,Wunderground v.1.15,2013-08-04 03:39:00,
2013-08-03 23:45:00,57.8,56.4,29.99,NNW,342,0.0,0.0,95,0.00,,,0.25,0,Wunderground v.1.15,2013-08-04 03:45:00,
2013-08-03 23:50:00,57.7,56.3,29.99,NNW,342,0.0,0.0,95,0.00,,,0.25,0,Wunderground v.1.15,2013-08-04 03:50:00,
2013-08-03 23:56:00,57.5,56.4,29.99,NNW,342,0.0,0.0,96,0.00,,,0.25,0,Wunderground v.1.15,2013-08-04 03:56:00,